Terminal Aerodrome Forecast
Issued by NWS St Louis, MO

Home | Current Version | Previous Version | Text Only | Print | Product List | Glossary On
Versions: 1 2 3 4 5 6 7 8 9 10 11 12 13 14 15 16 17 18 19
000
FTUS43 KLSX 040500
TAFCOU
TAF
KCOU 040531Z 0406/0506 18008KT P6SM SCT100 BKN250
     FM041500 22010G18KT P6SM SCT150 BKN250
     FM050000 19005KT P6SM BKN100=

USA.gov is the U.S. government's official web portal to all federal, state and local government web resources and services.